TimeEDT,TemperatureF,Dew PointF,Humidity,Sea Level PressureIn,VisibilityMPH,Wind Direction,Wind SpeedMPH,Gust SpeedMPH,PrecipitationIn,Events,Conditions,WindDirDegrees,DateUTC
12:53 AM,36.0,33.1,89,29.95,10.0,Calm,Calm,-,N/A,,Clear,0,2012-10-17 04:53:00
1:53 AM,34.0,32.0,92,29.95,8.0,Calm,Calm,-,N/A,,Clear,0,2012-10-17 05:53:00
2:53 AM,34.0,32.0,92,29.94,10.0,Calm,Calm,-,N/A,,Clear,0,2012-10-17 06:53:00
3:53 AM,33.1,32.0,96,29.95,9.0,Calm,Calm,-,N/A,,Clear,0,2012-10-17 07:53:00
4:53 AM,33.1,30.9,92,29.96,9.0,Calm,Calm,-,N/A,,Clear,0,2012-10-17 08:53:00
5:53 AM,32.0,30.9,96,29.97,8.0,Calm,Calm,-,N/A,,Clear,0,2012-10-17 09:53:00
6:53 AM,32.0,30.0,92,29.98,9.0,Calm,Calm,-,N/A,,Clear,0,2012-10-17 10:53:00
7:53 AM,33.1,32.0,96,30.00,9.0,Calm,Calm,-,N/A,,Clear,0,2012-10-17 11:53:00
8:53 AM,39.0,37.0,93,30.01,10.0,Calm,Calm,-,N/A,,Clear,0,2012-10-17 12:53:00
9:53 AM,46.9,39.9,77,30.02,10.0,Calm,Calm,-,N/A,,Clear,0,2012-10-17 13:53:00
10:53 AM,52.0,39.9,63,30.01,10.0,SSE,3.5,-,N/A,,Clear,160,2012-10-17 14:53:00
11:53 AM,55.0,37.9,53,29.99,10.0,Variable,3.5,-,N/A,,Clear,0,2012-10-17 15:53:00
12:53 PM,60.1,39.0,46,29.97,10.0,Variable,3.5,-,N/A,,Clear,0,2012-10-17 16:53:00
1:53 PM,61.0,37.9,42,29.96,8.0,Calm,Calm,-,N/A,,Clear,0,2012-10-17 17:53:00
2:53 PM,61.0,39.9,46,29.94,10.0,SSE,6.9,-,N/A,,Clear,160,2012-10-17 18:53:00
3:53 PM,63.0,39.9,43,29.93,10.0,SSW,3.5,-,N/A,,Clear,200,2012-10-17 19:53:00
4:53 PM,63.0,39.0,41,29.93,10.0,Calm,Calm,-,N/A,,Clear,0,2012-10-17 20:53:00
5:53 PM,60.1,39.9,47,29.94,10.0,Calm,Calm,-,N/A,,Clear,0,2012-10-17 21:53:00
6:53 PM,50.0,42.1,74,29.96,10.0,Calm,Calm,-,N/A,,Clear,0,2012-10-17 22:53:00
7:53 PM,48.0,43.0,83,29.97,10.0,Calm,Calm,-,N/A,,Clear,0,2012-10-17 23:53:00
8:53 PM,45.0,42.1,90,29.98,10.0,Calm,Calm,-,N/A,,Clear,0,2012-10-18 00:53:00
9:53 PM,44.1,41.0,89,29.99,10.0,Calm,Calm,-,N/A,,Clear,0,2012-10-18 01:53:00
10:53 PM,42.1,39.9,92,30.00,10.0,Calm,Calm,-,N/A,,Clear,0,2012-10-18 02:53:00
11:53 PM,39.0,37.0,93,29.99,6.0,Calm,Calm,-,N/A,,Clear,0,2012-10-18 03:53:00